TimeEST,TemperatureF,Dew PointF,Humidity,Sea Level PressureIn,VisibilityMPH,Wind Direction,Wind SpeedMPH,Gust SpeedMPH,PrecipitationIn,Events,Conditions,WindDirDegrees,DateUTC
12:15 AM,53.6,53.6,100,29.87,4.0,WSW,20.7,33.4,0.02,,Drizzle,250,2011-11-23 05:15:00
12:35 AM,53.6,53.6,100,29.87,1.2,WSW,18.4,25.3,0.03,Rain,Light Rain,240,2011-11-23 05:35:00
12:55 AM,53.6,53.6,100,29.86,0.5,WSW,17.3,20.7,N/A,Rain,Rain,240,2011-11-23 05:55:00
1:15 AM,53.6,53.6,100,29.85,0.2,WSW,16.1,-,0.01,Rain,Heavy Rain,250,2011-11-23 06:15:00
1:35 AM,53.6,53.6,100,29.84,0.2,West,15.0,18.4,0.03,Rain,Rain,260,2011-11-23 06:35:00
1:55 AM,53.6,53.6,100,29.83,0.2,West,18.4,25.3,N/A,,Drizzle,260,2011-11-23 06:55:00
2:15 AM,53.6,53.6,100,29.82,0.2,West,19.6,24.2,N/A,,Drizzle,270,2011-11-23 07:15:00
2:35 AM,53.6,53.6,100,29.81,0.2,West,15.0,24.2,N/A,,Drizzle,260,2011-11-23 07:35:00
2:55 AM,53.6,53.6,100,29.80,0.2,West,16.1,25.3,N/A,,Drizzle,270,2011-11-23 07:55:00
3:35 AM,53.6,53.6,100,29.77,1.0,West,21.9,31.1,N/A,,Overcast,270,2011-11-23 08:35:00
3:55 AM,51.8,51.8,100,29.77,0.5,West,20.7,28.8,N/A,Fog,Fog,270,2011-11-23 08:55:00
4:15 AM,51.8,51.8,100,29.76,10.0,West,25.3,34.5,N/A,,Overcast,270,2011-11-23 09:15:00
4:35 AM,51.8,51.8,100,29.75,10.0,West,24.2,32.2,N/A,,Overcast,260,2011-11-23 09:35:00
4:55 AM,51.8,51.8,100,29.75,10.0,West,23.0,28.8,N/A,,Overcast,260,2011-11-23 09:55:00
5:15 AM,51.8,51.8,100,29.75,10.0,West,26.5,33.4,N/A,,Overcast,260,2011-11-23 10:15:00
5:35 AM,51.8,51.8,100,29.76,10.0,West,24.2,32.2,N/A,,Overcast,260,2011-11-23 10:35:00
5:55 AM,51.8,51.8,100,29.76,7.0,West,21.9,27.6,N/A,,Overcast,270,2011-11-23 10:55:00
6:15 AM,50.0,50.0,100,29.76,5.0,West,20.7,31.1,N/A,Rain,Light Rain,270,2011-11-23 11:15:00
6:35 AM,48.2,48.2,100,29.76,1.0,West,26.5,33.4,0.01,,Drizzle,270,2011-11-23 11:35:00
6:55 AM,48.2,48.2,100,29.77,7.0,West,31.1,39.1,N/A,,Overcast,270,2011-11-23 11:55:00
7:15 AM,46.4,46.4,100,29.76,10.0,West,26.5,33.4,N/A,,Overcast,270,2011-11-23 12:15:00
7:35 AM,46.4,46.4,100,29.76,10.0,West,25.3,38.0,N/A,,Overcast,270,2011-11-23 12:35:00
7:55 AM,46.4,46.4,100,29.77,7.0,West,26.5,39.1,N/A,,Overcast,270,2011-11-23 12:55:00
8:15 AM,46.4,46.4,100,29.77,10.0,West,23.0,32.2,N/A,,Overcast,280,2011-11-23 13:15:00
8:35 AM,44.6,44.6,100,29.77,10.0,West,27.6,39.1,N/A,,Overcast,280,2011-11-23 13:35:00
8:55 AM,44.6,42.8,93,29.77,10.0,West,25.3,35.7,N/A,,Overcast,280,2011-11-23 13:55:00
9:15 AM,42.8,41.0,93,29.78,10.0,West,26.5,39.1,N/A,,Overcast,270,2011-11-23 14:15:00
9:35 AM,42.8,39.2,87,29.79,10.0,West,28.8,41.4,N/A,,Overcast,280,2011-11-23 14:35:00
9:55 AM,39.2,37.4,93,29.80,5.0,WNW,17.3,33.4,N/A,,Drizzle,290,2011-11-23 14:55:00
10:15 AM,39.2,37.4,93,29.78,10.0,West,32.2,43.7,N/A,,Overcast,280,2011-11-23 15:15:00
10:35 AM,37.4,35.6,93,29.80,10.0,West,26.5,42.6,N/A,,Overcast,280,2011-11-23 15:35:00
10:55 AM,37.4,33.8,87,29.80,10.0,WNW,29.9,44.9,N/A,,Mostly Cloudy,290,2011-11-23 15:55:00
11:15 AM,35.6,33.8,93,29.81,10.0,WNW,26.5,36.8,N/A,,Mostly Cloudy,290,2011-11-23 16:15:00
11:35 AM,35.6,32.0,87,29.83,10.0,WNW,20.7,35.7,N/A,,Overcast,290,2011-11-23 16:35:00
11:55 AM,35.6,32.0,87,29.83,10.0,WNW,26.5,35.7,N/A,,Overcast,300,2011-11-23 16:55:00
12:15 PM,35.6,32.0,87,29.84,10.0,NW,20.7,36.8,N/A,,Overcast,310,2011-11-23 17:15:00
12:35 PM,37.4,32.0,81,29.85,10.0,WNW,23.0,39.1,N/A,,Overcast,290,2011-11-23 17:35:00
1:15 PM,37.4,33.8,87,29.83,10.0,WNW,28.8,44.9,N/A,,Overcast,300,2011-11-23 18:15:00
1:35 PM,37.4,33.8,87,29.84,10.0,NW,29.9,55.2,N/A,,Overcast,320,2011-11-23 18:35:00
1:55 PM,37.4,33.8,87,29.88,10.0,NW,23.0,36.8,N/A,,Overcast,320,2011-11-23 18:55:00
2:15 PM,37.4,33.8,87,29.89,10.0,NW,28.8,41.4,N/A,,Overcast,310,2011-11-23 19:15:00
2:35 PM,37.4,35.6,93,29.91,10.0,NW,24.2,36.8,N/A,,Overcast,320,2011-11-23 19:35:00
3:35 PM,35.6,33.8,93,29.95,10.0,NW,25.3,36.8,N/A,,Overcast,320,2011-11-23 20:35:00
3:55 PM,35.6,33.8,93,29.96,10.0,NW,28.8,40.3,N/A,,Overcast,310,2011-11-23 20:55:00
4:15 PM,35.6,33.8,93,29.98,10.0,NW,25.3,35.7,N/A,,Overcast,310,2011-11-23 21:15:00
4:35 PM,35.6,33.8,93,29.98,10.0,WNW,27.6,35.7,N/A,,Overcast,300,2011-11-23 21:35:00
4:55 PM,35.6,32.0,87,29.99,10.0,NW,23.0,36.8,N/A,,Overcast,310,2011-11-23 21:55:00
5:15 PM,37.4,32.0,81,30.00,10.0,NW,24.2,31.1,N/A,,Overcast,310,2011-11-23 22:15:00
5:35 PM,37.4,32.0,81,30.01,10.0,NW,17.3,38.0,N/A,,Overcast,320,2011-11-23 22:35:00
5:55 PM,37.4,32.0,81,30.03,10.0,NW,19.6,39.1,N/A,,Overcast,310,2011-11-23 22:55:00
6:15 PM,35.6,32.0,87,30.03,10.0,NW,24.2,34.5,N/A,,Mostly Cloudy,320,2011-11-23 23:15:00
6:35 PM,35.6,30.2,81,30.02,10.0,NW,26.5,39.1,N/A,,Scattered Clouds,310,2011-11-23 23:35:00
6:55 PM,35.6,30.2,81,30.02,10.0,NW,23.0,34.5,N/A,,Scattered Clouds,310,2011-11-23 23:55:00
7:15 PM,35.6,30.2,81,30.04,10.0,NW,18.4,33.4,N/A,,Scattered Clouds,320,2011-11-24 00:15:00
7:35 PM,35.6,30.2,81,30.06,10.0,NW,16.1,31.1,N/A,,Mostly Cloudy,320,2011-11-24 00:35:00
7:55 PM,35.6,30.2,81,30.08,10.0,NW,18.4,31.1,N/A,,Mostly Cloudy,320,2011-11-24 00:55:00
8:15 PM,35.6,30.2,81,30.08,10.0,NW,16.1,31.1,N/A,,Scattered Clouds,310,2011-11-24 01:15:00
8:35 PM,35.6,30.2,81,30.08,10.0,WNW,24.2,36.8,N/A,,Scattered Clouds,300,2011-11-24 01:35:00
8:55 PM,35.6,30.2,81,30.08,10.0,NW,17.3,29.9,N/A,,Scattered Clouds,310,2011-11-24 01:55:00
9:35 PM,35.6,28.4,75,30.12,10.0,WNW,19.6,28.8,N/A,,Clear,290,2011-11-24 02:35:00
10:15 PM,33.8,28.4,81,30.12,10.0,NW,23.0,32.2,N/A,,Clear,310,2011-11-24 03:15:00
10:35 PM,35.6,28.4,75,30.12,10.0,NW,21.9,36.8,N/A,,Clear,310,2011-11-24 03:35:00
10:55 PM,33.8,28.4,81,30.13,10.0,NW,23.0,32.2,N/A,,Clear,310,2011-11-24 03:55:00
11:15 PM,33.8,28.4,81,30.14,10.0,NW,19.6,28.8,N/A,,Clear,310,2011-11-24 04:15:00
11:55 PM,33.8,26.6,75,30.15,10.0,WNW,19.6,28.8,N/A,,Clear,300,2011-11-24 04:55:00